Home > Weather > Stillwater > Past weeks

Flag for USA Past Weather in Stillwater, Minnesota, USA — Yesterday and Last 2 Weeks

Now
86 °F

Partly sunny.


Feels Like: 93 °F
Forecast: 70 / 89 °F
Wind: 16 mph from Southwest

Location: St. Paul Downtown Holman Field

Current Time: Jun 25, 2016 at 12:50:50 PM

Latest Report: Jun 25, 2016 at 11:53 AM


Visibility: 10 mi

Pressure: 29.78 "Hg

Humidity: 65%

Dew Point: 73 °F

Location of StillwaterLocation

Past Weather in Stillwater — Graph

°F

Stillwater Temperature Yesterday

Maximum temperature yesterday: 81 °F (at 4:53 PM)
Minimum temperature yesterday: 59 °F (at 5:53 AM)
Average temperature yesterday: 71 °F

High & Low Weather Summary for the Past Weeks

 TemperatureHumidityPressure
High91 °F (Jun 11, 4:53 PM)100% (Jun 24, 6:53 AM)30.18 "Hg (Jun 24, 6:53 AM)
Low57 °F (Jun 21, 4:53 AM)31% (Jun 20, 3:53 PM)29.61 "Hg (Jun 14, 8:53 PM)
Average73 °F69%29.93 "Hg
* Reported Jun 10 10:53 AM — Jun 25 10:53 AM, Stillwater, Weather by CustomWeather, © 2016

Note: Actual official high and low records may vary slightly from our data, if they occured in-between our weather recording intervals... More about our weather records

Advertising

Stillwater Weather History for the Previous 24 Hours

Scroll right to see more
 ConditionsComfort  
Time TempWeatherWind HumidityBarometerVisibility
10:53 AM
Sat, Jun 25
85 °FSunny.15 mph65%29.77 "Hg10 mi
9:53 AM83 °FSunny.21 mph70%29.78 "Hg10 mi
8:53 AM80 °FSunny.17 mph71%29.81 "Hg10 mi
7:53 AM75 °FSunny.12 mph79%29.82 "Hg10 mi
6:53 AM73 °FSunny.9 mph81%29.84 "Hg10 mi
5:53 AM72 °FClear.10 mph81%29.84 "Hg10 mi
4:53 AM72 °FClear.14 mph81%29.83 "Hg10 mi
3:53 AM73 °FPassing clouds.12 mph79%29.84 "Hg10 mi
2:53 AM73 °FPassing clouds.9 mph76%29.85 "Hg10 mi
1:53 AM74 °FOvercast.12 mph74%29.88 "Hg10 mi
12:53 AM74 °FOvercast.12 mph74%29.90 "Hg10 mi
11:53 PM
Fri, Jun 24
73 °FPassing clouds.10 mph76%29.91 "Hg10 mi
10:53 PM74 °FClear.9 mph74%29.91 "Hg10 mi
9:53 PM75 °FSunny.8 mph71%29.91 "Hg10 mi
8:53 PM77 °FSunny.7 mph66%29.91 "Hg10 mi
7:53 PM79 °FSunny.9 mph62%29.92 "Hg10 mi
6:53 PM81 °FSunny.12 mph56%29.92 "Hg10 mi
5:53 PM81 °FSunny.10 mph56%29.94 "Hg10 mi
4:53 PM81 °FSunny.14 mph54%29.96 "Hg10 mi
3:53 PM79 °FPassing clouds.13 mph60%29.97 "Hg10 mi
2:53 PM76 °FPartly sunny.9 mph64%30.00 "Hg10 mi
1:53 PM77 °FPartly sunny.15 mph62%30.01 "Hg10 mi
12:53 PM75 °FPartly sunny.14 mph66%30.03 "Hg10 mi
Weather by CustomWeather, © 2016

See weather overviewHow to use our weather pages